Location: Ca�n Prats
(41.4842°N, 1.8890°E)
Time: 08:53:56
(UTC+00:00)

Daily predictions for brighter satellites

Satellite Brightness Start Highest point End
(mag) Time Altitude Azimuth Time Altitude Azimuth Time Altitude Azimuth
SAR-Lupe-1 4.0 19:06:37 10° NNE 19:10:13 84° ESE 19:13:47 10° SSW
Cosmos 2322 4.1 19:05:24 10° NNW 19:11:02 68° WSW 19:16:38 10° SSE
SJ-6B 3.6 19:08:10 10° SE 19:11:30 32° ENE 19:14:53 10° N
OBJECT-B 1.8 19:10:16 10° SE 19:13:04 28° ENE 19:15:55 10° NNE
BREEZE-M DEB (TANK) 2.3 19:11:19 10° SW 19:18:04 69° SSE 19:20:34 10° ENE
SME Rocket 3.6 19:17:08 10° NNE 19:21:19 81° WNW 19:27:09 10° SSW
Meteor 2-10 Rocket 4.4 19:16:28 10° SSW 19:21:39 58° WNW 19:27:07 10° N
Cosmos 2360 Rocket 4.5 19:19:39 10° NW 19:24:06 24° WSW 19:28:31 10° SSW
Cosmos 1980 4.2 19:19:46 10° NNW 19:25:10 43° ENE 19:30:26 11° SE
SL-16 R/B 4.0 19:22:12 10° N 19:25:49 17° NE 19:29:23 10° E
Cosmos 407 Rocket 3.9 19:22:27 10° S 19:27:12 40° ESE 19:32:01 10° NE
Cosmos 1092 Rocket 4.1 19:21:32 10° N 19:27:47 86° W 19:33:57 10° S
Cosmos 1356 3.9 19:24:36 10° N 19:27:51 39° ENE 19:31:04 10° SSE
Cosmos 2084 Rocket 3.7 19:24:23 10° S 19:28:05 39° ESE 19:31:50 10° NE
Cosmos 1455 2.7 19:24:46 10° SSW 19:28:28 62° W 19:32:11 10° N
Resurs 1-3 4.3 19:30:06 10° SE 19:34:01 35° ENE 19:38:01 10° N
Resurs 01 Rocket 3.0 19:31:57 12° ESE 19:34:53 23° ENE 19:38:20 10° NNE
Cosmos 1140 Rocket 3.8 19:32:53 10° S 19:37:43 43° ESE 19:42:33 10° NNE
Cosmos 2219 Rocket 3.1 19:32:36 10° NW 19:38:06 50° WSW 19:43:32 10° S
FALCON 9 DEB 2.8 19:36:30 10° SW 19:39:33 83° NW 19:42:37 10° NE
Cosmos 1408 4.3 19:38:47 10° NNW 19:42:02 34° W 19:45:17 10° SSW
SL-4 R/B 2.1 19:38:13 10° SW 19:42:27 84° SE 19:47:03 10° NE
FALCON 9 DEB 3.3 19:40:03 10° WSW 19:43:02 60° NW 19:46:02 10° NE
COSMOS 2428 3.5 19:41:08 10° NNW 19:46:42 52° WSW 19:52:13 10° S
IRS-1A Rocket 4.3 19:43:51 10° SSE 19:49:24 68° ENE 19:55:04 10° N
COSMOS 2455 3.5 19:44:51 10° S 19:50:04 32° ESE 19:55:20 10° NE
Cosmos-2242 3.8 19:47:14 15° SE 19:50:06 30° E 19:53:52 10° NNE
Cosmos 2151 3.7 19:46:48 10° N 19:50:45 34° ENE 19:53:06 20° SE
Cosmos 2344 4.2 19:46:04 10° SW 19:53:28 60° NW 20:01:14 10° NNE
IRIDIUM 103 4.4 19:49:01 10° SSE 19:54:07 59° E 19:59:15 10° N
FALCON 9 DEB 4.0 19:51:51 10° WSW 19:54:46 43° NNW 19:57:41 10° NE
Cosmos 2279 Rocket 3.9 19:49:16 10° S 19:55:25 81° E 20:01:39 10° N
IGS 5A 4.3 20:00:59 24° ESE 20:02:42 34° ENE 20:06:27 10° N
Cosmos 405 Rocket 3.2 20:01:15 10° NNW 20:05:11 61° W 20:08:56 10° S
Meteor 2-3 Rocket 4.1 20:01:25 10° N 20:06:58 47° ENE 20:10:11 23° SE
Cosmos 1076 Rocket 3.6 20:05:51 10° NNW 20:10:11 74° W 20:13:57 13° S
Cosmos 1825 4.3 20:08:56 10° NNW 20:12:09 27° W 20:15:21 10° SSW
Cosmos 2292 Rocket 4.0 20:06:06 10° N 20:12:10 88° W 20:15:48 16° S
IRIDIUM 106 4.3 20:07:09 10° S 20:12:21 87° E 20:17:36 10° N
Cosmos 2237 Rocket 2.2 20:07:10 10° NNW 20:12:50 87° WSW 20:16:45 20° SSE
Cosmos 1633 2.4 20:09:42 10° N 20:13:17 67° E 20:14:40 34° SSE
Hubble Space Telescope 2.9 20:12:31 10° SSW 20:14:20 13° S 20:14:20 13° S
Meteor 1-4 Rocket 3.7 20:21:53 26° ENE 20:21:53 26° ENE 20:24:07 10° NNE
Cosmos 389 Rocket 4.3 20:19:09 10° SW 20:22:21 32° WNW 20:25:36 10° N
Cosmos 2266 Rocket 4.0 20:17:02 10° N 20:23:21 64° E 20:27:01 26° SSE
SPOT 5 4.5 20:23:11 17° ENE 20:23:52 18° ENE 20:27:02 10° NNE
Cosmos 2227 Rocket 2.2 20:19:23 10° SSW 20:25:03 82° WNW 20:30:45 10° NNE
USA 245 4.3 20:25:35 24° ENE 20:25:35 24° ENE 20:27:40 10° NNE
Ariane Rocket 3.5 20:21:14 12° S 20:25:47 58° W 20:30:47 10° NNW
Cosmos 1190 Rocket 4.1 20:20:37 10° SSW 20:25:51 79° WNW 20:31:06 10° NNE
Cosmos 2082 3.8 20:20:32 10° S 20:25:57 52° ESE 20:31:24 10° NNE
ARIANE 5 R/B 3.7 20:27:08 26° E 20:27:39 27° ENE 20:31:21 10° N
Cosmos 2297 Rocket 2.8 20:26:02 10° SW 20:31:34 57° WNW 20:37:10 10° NNE
ATLAS 3B R/B 4.1 20:28:29 10° NW 20:34:46 35° WSW 20:41:16 10° S
Genesis I 3.2 20:30:46 10° NW 20:34:47 79° WSW 20:35:44 51° SSE
Landsat 7 3.7 20:38:18 41° SSE 20:39:58 79° ENE 20:44:45 10° N
Cosmos 1869 3.3 20:40:09 58° E 20:40:14 58° E 20:44:07 10° NNE
Lacrosse 5 rocket 4.1 20:39:02 10° N 20:40:57 13° NNE 20:42:56 10° NE
USA 215 4.2 20:36:52 19° E 20:41:04 39° NNE 20:47:01 10° NW
Cosmos 2219 4.0 20:37:02 10° SW 20:42:29 51° WNW 20:47:59 10° NNE
SPOT 1/Viking Rocket 3.6 20:42:59 43° SE 20:44:29 61° ENE 20:49:38 10° N
Cosmos 676 Rocket 3.9 20:39:20 10° SSW 20:44:31 89° WNW 20:49:44 10° NNE
OBJECT-B 3.7 20:43:46 10° WSW 20:45:21 13° W 20:46:57 10° WNW
CARTOSAT-1 4.2 20:50:01 39° ENE 20:50:01 39° ENE 20:53:56 10° N
SPOT 3 Rocket 3.8 20:50:21 31° S 20:52:47 66° WSW 20:57:57 10° NNW
Cosmos 1766 Rocket 3.4 20:49:22 10° N 20:53:42 70° E 20:53:56 68° ESE
ERS-1 Rocket 3.6 20:53:41 36° ENE 20:54:01 37° ENE 20:58:37 10° N
Cosmos 44 Rocket 3.5 20:53:08 10° SW 20:58:10 75° WNW 21:03:23 10° NNE
CZ-2C R/B 3.8 20:55:20 10° N 20:59:45 70° WNW 21:01:32 35° SSW
Okean 3 Rocket 3.5 21:01:48 10° N 21:06:19 85° W 21:06:38 77° SSW
SL-16 R/B 2.1 21:04:57 10° NNW 21:10:41 84° WSW 21:11:47 59° SSE
Resurs 01 Rocket 3.0 21:09:31 26° SW 21:11:09 34° W 21:15:14 10° NNW
Cosmos 1553 Rocket 4.3 21:13:00 44° E 21:13:00 44° E 21:18:37 10° NNE
Meteor 2-2 Rocket 4.2 21:15:00 62° ESE 21:15:22 64° E 21:21:00 10° NNE
SL-4 R/B 4.1 21:18:37 10° W 21:22:34 30° NNW 21:26:45 10° NE
Cosmos 1741 Rocket 3.9 21:28:58 78° ENE 21:28:58 78° ENE 21:33:59 10° NNE
Cosmos 1850 Rocket 3.9 21:31:15 84° NNE 21:31:15 84° NNE 21:36:21 10° NNE
BREEZE-M DEB (TANK) 3.8 21:23:55 10° WNW 21:31:53 49° NNE 21:32:03 48° NNE
BREEZE M DEB (TANK) 4.5 21:29:03 10° WSW 21:33:08 67° NNW 21:47:34 10° ENE
Spot 2 Rocket 3.7 21:34:51 58° WSW 21:35:09 59° WSW 21:40:11 10° NNW
Cosmos 1943 4.0 21:30:16 10° N 21:35:27 39° ENE 21:35:27 39° ENE
COSMOS 2455 3.9 21:30:08 10° SW 21:35:50 43° NW 21:41:34 10° NNE
Cosmos 1842 Rocket 4.3 21:37:21 52° N 21:37:21 52° N 21:40:46 10° N
USA 229 DEB 4.2 21:34:48 10° NNW 21:42:02 57° NE 21:43:36 49° E
USA 229 4.2 21:34:54 10° NNW 21:42:07 57° NE 21:43:43 48° E
SL-08 ROCKET BODY 4.3 21:37:35 10° N 21:43:30 73° ENE 21:43:30 73° ENE
Terra 2.3 21:47:01 55° N 21:47:01 55° N 21:50:47 10° N
Cosmos 2221 3.8 21:53:58 39° NNW 21:53:58 39° NNW 21:57:00 10° N
Cosmos 2263 Rocket 2.4 21:58:57 63° NNE 21:58:57 63° NNE 22:03:37 10° NNE
Cosmos 841 Rocket 3.9 21:53:22 10° NNW 21:57:33 57° N 21:57:33 57° N
NOSS 3-1 (A) 4.2 21:52:33 10° NNW 22:00:09 68° NE 22:01:40 58° E
SPOT 5 3.8 22:02:24 43° WNW 22:02:24 43° WNW 22:06:09 10° NNW
ARIANE 5 R/B 4.4 22:04:41 26° W 22:04:41 26° W 22:07:48 10° NW
Cosmos 1763 Rocket 4.5 22:00:38 10° NNW 22:04:42 39° W 22:04:42 39° W
Cosmos 540 Rocket 4.1 22:05:08 10° NNW 22:09:00 51° NW 22:09:00 51° NW
Aureole 1 Rocket 4.2 22:12:07 50° WNW 22:12:07 50° WNW 22:16:35 10° N
Cosmos 1745 Rocket 4.0 22:13:05 10° N 22:18:50 75° NNW 22:18:50 75° NNW
Lacrosse 5 rocket 3.4 22:17:06 10° NNW 22:19:33 27° N 22:19:33 27° N
NOSS 3-1 (C) 4.2 22:15:38 10° NW 22:23:19 66° WSW 22:23:57 64° SW
USA 215 3.2 22:24:12 73° W 22:24:12 73° W 22:30:19 10° NW
Cosmos 1709 Rocket 4.4 22:18:20 10° N 22:23:22 53° NE 22:23:22 53° NE
Cosmos 1603 4.2 22:19:47 10° NNW 22:24:17 56° NW 22:24:17 56° NW
BREEZE-M DEB (TANK) 4.4 22:21:28 10° WNW 22:26:13 86° SSW 22:26:39 79° SE
S3M 4.2 22:30:39 66° WNW 22:30:39 66° WNW 22:36:45 10° N
SeaSat 1 4.2 22:45:38 10° NNE 22:47:52 27° NNE 22:47:52 27° NNE
ATLAS 5 CENTAUR R/B 4.5 23:01:51 10° N 23:05:29 18° NE 23:07:39 15° ENE
Cosmos 1844 Rocket 4.0 23:55:19 35° NNW 23:55:19 35° NNW 23:58:57 10° NNE
